FENGYUN 1C DEB, 31938

Orbit data source: Space-Track

FENGYUN 1C DEB, 31938 is space debris in SSO originally from a launch on Mon, 10 May 1999 UTC launched from the Taiyaun Space Center, China (TSC). Fengyun 1C debris stems from the Chinese weather satellite Fengyun-1C, which was intentionally destroyed by a Chinese anti-satellite missile in 2007. This event dramatically increased the amount of space debris, with thousands of trackable fragments posing hazards to satellites and human spaceflight. The Fengyun 1C debris cloud has become a focal point in discussions about space sustainability and the need for international regulations to prevent the creation of new debris.

Loading next visibility...
Identifier
31938, 1999-025CMP
Orbit
SSO
Country
Flag of CNCN / PRC
Related business
Manufacturer
Unknown
Mission
Spacecraft
Bus & Motor
Unknown
Mass
Unknown
Launch date (UTC)
1999-05-10 (27 years ago)
Launch vehicle
Unknown
Launch site
Taiyaun Space Center, China (TSC)
Object type
Payload
Rocket body
Debris
Shape & HBR
Unknown shape, 0.1 m
Radar Cross Section
Small (<0.1 m²)

Expand to show TLE details & history
Last TLE update: 1 day ago

TLE from 1 day ago
0 FENGYUN 1C DEB
1 31938U 99025CMP 26235.65157964  .00002562  00000-0  17890-3 0  9993
2 31938  98.8970 307.5485 0144800 323.0328  36.0979 14.98432782 29280
Epoch: 2026-08-23T15:38Z
TLE epoch observation values (Epoch: 2026-08-23T15:38:16.480Z)
Latitude
-0.00006°
Longitude
101.03527°
Altitude
493.938 km
Speed
7.662 km/s
True Right ascension
20h 30m 11s
True Declination
0° 00' 00"
Sunlit
Object was in full shadow at epoch
Visualization orbit readout
Latitude
Unknown
Longitude
Unknown
Altitude
Unknown
Speed
Unknown
Apparent Right ascension
Unknown
Apparent Declination
Unknown
Sunlit
N/A
Visualization observer readout
Local Sidereal Time
13:15:06
Azimuth
Unknown
Elevation
Unknown
Doppler factor
Unknown
Orbital elements
Apogee altitude
669.393 km
Perigee altitude
468.21 km
Semi-major axis
6,946.938 km
Eccentricity
0.01448
Inclination
98.897°
RAAN
307.5485°
Arg. of periapsis
323.0328°
True anomaly
37.08995°
Mean anomaly
36.0979°
Eccentric anomaly
36.59247°
Mean motion
3.74846 °/min
Orbital period
96.04 mins
BSTAR
0.0001789
Loading maneuver chart data...
Computing Atmospheric mass density...
Loading historical data...
Loading historical data...
Loading historical data...
Loading historical data...
Loading historical data...
Loading historical data...
Loading historical data...

Documentation

Showing up to 5 results
|